Location: *
(51.0333°S, 178.4667°E)
Time: 21:53:14
(UTC+00:00)

Cosmos 1461 - Pass Details

Date: 15 November 2019
Orbit: 522 x 645 km, 65.0° (Epoch: 05 December)

Event Time Altitude Azimuth Distance (km) Brightness Sun altitude
Rises 09:58:06 0° 220° (SW) 2,964 8.2 -16.2°
Reaches altitude 10° 10:00:38 10° 211° (SSW) 2,035 7.1 -16.4°
Maximum altitude 10:04:50 34° 145° (SE) 1,040 4.5 -16.7°
Enters shadow 10:08:13 14° 84° (E) 1,733 5.0 -17.0°
